Year,Month,Day,Hour,Minute,Value (Times are PST for temperature in C)
2015,09,24,00,00,11.30
2015,09,24,00,01,11.30
2015,09,24,00,02,11.30
2015,09,24,00,03,11.30
2015,09,24,00,04,11.30
2015,09,24,00,05,11.30
2015,09,24,00,06,11.30
2015,09,24,00,07,11.30
2015,09,24,00,08,11.30
2015,09,24,00,09,11.30
2015,09,24,00,10,11.30
2015,09,24,00,11,11.30
2015,09,24,00,12,11.30
2015,09,24,00,13,11.30
2015,09,24,00,14,11.30
2015,09,24,00,15,11.30
2015,09,24,00,16,11.30
2015,09,24,00,17,11.30
2015,09,24,00,18,11.30
2015,09,24,00,19,11.30
2015,09,24,00,20,11.30
2015,09,24,00,21,11.30
2015,09,24,00,22,11.30
2015,09,24,00,23,11.30
2015,09,24,00,24,11.30
2015,09,24,00,25,11.30
2015,09,24,00,26,11.30
2015,09,24,00,27,11.30
2015,09,24,00,28,11.30
2015,09,24,00,29,11.30
2015,09,24,00,30,11.30
2015,09,24,00,31,11.30
2015,09,24,00,32,11.30
2015,09,24,00,33,11.30
2015,09,24,00,34,11.30
2015,09,24,00,35,11.30
2015,09,24,00,36,11.30
2015,09,24,00,37,11.30
2015,09,24,00,38,11.30
2015,09,24,00,39,11.30
2015,09,24,00,40,11.30
2015,09,24,00,41,11.30
2015,09,24,00,42,11.30
2015,09,24,00,43,11.30
2015,09,24,00,44,11.40
2015,09,24,00,45,11.40
2015,09,24,00,46,11.40
2015,09,24,00,47,11.40
2015,09,24,00,48,11.40
2015,09,24,00,49,11.40
2015,09,24,00,50,11.40
2015,09,24,00,51,11.40
2015,09,24,00,52,11.40
2015,09,24,00,53,11.40
2015,09,24,00,54,11.40
2015,09,24,00,55,11.40
2015,09,24,00,56,11.40
2015,09,24,00,57,11.40
2015,09,24,00,58,11.40
2015,09,24,00,59,11.40
2015,09,24,01,00,11.40
2015,09,24,01,01,11.40
2015,09,24,01,02,11.40
2015,09,24,01,03,11.40
2015,09,24,01,04,11.40
2015,09,24,01,05,11.40
2015,09,24,01,06,11.40
2015,09,24,01,07,11.40
2015,09,24,01,08,11.40
2015,09,24,01,09,11.40
2015,09,24,01,10,11.40
2015,09,24,01,11,11.40
2015,09,24,01,12,11.30
2015,09,24,01,13,11.40
2015,09,24,01,14,11.40
2015,09,24,01,15,11.30
2015,09,24,01,16,11.40
2015,09,24,01,17,11.40
2015,09,24,01,18,11.40
2015,09,24,01,19,11.40
2015,09,24,01,20,11.40
2015,09,24,01,21,11.40
2015,09,24,01,22,11.40
2015,09,24,01,23,11.40
2015,09,24,01,24,11.40
2015,09,24,01,25,11.40
2015,09,24,01,26,11.40
2015,09,24,01,27,11.40
2015,09,24,01,28,11.40
2015,09,24,01,29,11.40
2015,09,24,01,30,11.40
2015,09,24,01,31,11.40
2015,09,24,01,32,11.40
2015,09,24,01,33,11.40
2015,09,24,01,34,11.40
2015,09,24,01,35,11.40
2015,09,24,01,36,11.40
2015,09,24,01,37,11.40
2015,09,24,01,38,11.40
2015,09,24,01,39,11.40
2015,09,24,01,40,11.40
2015,09,24,01,41,11.40
2015,09,24,01,42,11.40
2015,09,24,01,43,11.40
2015,09,24,01,44,11.40
2015,09,24,01,45,11.40
2015,09,24,01,46,11.40
2015,09,24,01,47,11.40
2015,09,24,01,48,11.40
2015,09,24,01,49,11.40
2015,09,24,01,50,11.40
2015,09,24,01,51,11.40
2015,09,24,01,52,11.40
2015,09,24,01,53,11.40
2015,09,24,01,54,11.40
2015,09,24,01,55,11.40
2015,09,24,01,56,11.40
2015,09,24,01,57,11.40
2015,09,24,01,58,11.40
2015,09,24,01,59,11.40
2015,09,24,02,00,11.40
2015,09,24,02,01,11.40
2015,09,24,02,02,11.40
2015,09,24,02,03,11.40
2015,09,24,02,04,11.40
2015,09,24,02,05,11.40
2015,09,24,02,06,11.40
2015,09,24,02,07,11.40
2015,09,24,02,08,11.40
2015,09,24,02,09,11.40
2015,09,24,02,10,11.40
2015,09,24,02,11,11.40
2015,09,24,02,12,11.40
2015,09,24,02,13,11.40
2015,09,24,02,14,11.40
2015,09,24,02,15,11.40
2015,09,24,02,16,11.40
2015,09,24,02,17,11.40
2015,09,24,02,18,11.40
2015,09,24,02,19,11.40
2015,09,24,02,20,11.40
2015,09,24,02,21,11.40
2015,09,24,02,22,11.40
2015,09,24,02,23,11.40
2015,09,24,02,24,11.40
2015,09,24,02,25,11.40
2015,09,24,02,26,11.40
2015,09,24,02,27,11.40
2015,09,24,02,28,11.40
2015,09,24,02,29,11.40
2015,09,24,02,30,11.40
2015,09,24,02,31,11.40
2015,09,24,02,32,11.40
2015,09,24,02,33,11.40
2015,09,24,02,34,11.40
2015,09,24,02,35,11.40
2015,09,24,02,36,11.40
2015,09,24,02,37,11.40
2015,09,24,02,38,11.40
2015,09,24,02,39,11.40
2015,09,24,02,40,11.40
2015,09,24,02,41,11.40
2015,09,24,02,42,11.40
2015,09,24,02,43,11.40
2015,09,24,02,44,11.40
2015,09,24,02,45,11.40
2015,09,24,02,46,11.40
2015,09,24,02,47,11.40
2015,09,24,02,48,11.40
2015,09,24,02,49,11.40
2015,09,24,02,50,11.50
2015,09,24,02,51,11.50
2015,09,24,02,52,11.50
2015,09,24,02,53,11.50
2015,09,24,02,54,11.50
2015,09,24,02,55,11.50
2015,09,24,02,56,11.50
2015,09,24,02,57,11.50
2015,09,24,02,58,11.50
2015,09,24,02,59,11.50
2015,09,24,03,00,11.50
2015,09,24,03,01,11.50
2015,09,24,03,02,11.50
2015,09,24,03,03,11.60
2015,09,24,04,02,11.90
2015,09,24,04,03,11.90
2015,09,24,04,04,11.90
2015,09,24,04,05,11.90
2015,09,24,04,06,11.90
2015,09,24,04,07,11.90
2015,09,24,04,08,11.90
2015,09,24,04,09,11.90
2015,09,24,04,10,11.90
2015,09,24,04,11,11.90
2015,09,24,04,12,11.90
2015,09,24,04,13,11.90
2015,09,24,04,14,11.90
2015,09,24,04,15,11.90
2015,09,24,04,16,11.90
2015,09,24,04,17,11.90
2015,09,24,04,18,11.90
2015,09,24,04,19,11.90
2015,09,24,04,20,11.90
2015,09,24,04,21,11.90
2015,09,24,04,22,11.90
2015,09,24,04,23,11.90
2015,09,24,04,24,11.90
2015,09,24,04,25,11.90
2015,09,24,04,26,11.90
2015,09,24,04,27,11.90
2015,09,24,04,28,11.90
2015,09,24,04,29,11.90
2015,09,24,04,30,11.90
2015,09,24,04,31,11.90
2015,09,24,04,32,11.90
2015,09,24,04,33,11.90
2015,09,24,04,34,11.90
2015,09,24,04,35,11.90
2015,09,24,04,36,11.90
2015,09,24,04,37,11.90
2015,09,24,04,38,11.90
2015,09,24,04,39,11.90
2015,09,24,04,40,11.90
2015,09,24,04,41,11.90
2015,09,24,04,42,11.90
2015,09,24,04,43,11.90
2015,09,24,04,44,11.90
2015,09,24,04,45,11.90
2015,09,24,04,46,11.90
2015,09,24,04,47,12.00
2015,09,24,04,48,12.00
2015,09,24,04,49,12.00
2015,09,24,04,50,12.00
2015,09,24,04,51,12.00
2015,09,24,04,52,12.00
2015,09,24,04,53,12.00
2015,09,24,04,54,12.00
2015,09,24,04,55,12.00
2015,09,24,04,56,12.00
2015,09,24,04,57,12.00
2015,09,24,04,58,12.00
2015,09,24,04,59,12.00
2015,09,24,05,00,12.00
2015,09,24,05,01,12.00
2015,09,24,05,02,12.00
2015,09,24,05,03,12.00
2015,09,24,05,04,12.00
2015,09,24,05,05,12.00
2015,09,24,05,06,12.00
2015,09,24,05,07,12.00
2015,09,24,05,08,11.90
2015,09,24,05,09,11.90
2015,09,24,05,10,11.90
2015,09,24,05,11,11.90
2015,09,24,05,12,11.90
2015,09,24,05,13,12.00
2015,09,24,05,14,12.00
2015,09,24,05,15,12.00
2015,09,24,05,16,12.00
2015,09,24,05,17,12.00
2015,09,24,05,18,12.00
2015,09,24,05,19,12.00
2015,09,24,05,20,12.00
2015,09,24,05,21,12.00
2015,09,24,05,22,12.00
2015,09,24,05,23,12.00
2015,09,24,05,24,12.00
2015,09,24,05,25,12.00
2015,09,24,05,26,12.00
2015,09,24,05,27,12.00
2015,09,24,05,28,12.00
2015,09,24,05,29,12.00
2015,09,24,05,30,12.00
2015,09,24,05,31,12.00
2015,09,24,05,32,12.00
2015,09,24,05,33,12.00
2015,09,24,05,34,12.00
2015,09,24,05,35,12.00
2015,09,24,05,36,12.00
2015,09,24,05,37,12.00
2015,09,24,05,38,11.90
2015,09,24,05,39,11.90
2015,09,24,05,40,11.90
2015,09,24,05,41,11.90
2015,09,24,05,42,11.90
2015,09,24,05,43,11.90
2015,09,24,05,44,11.90
2015,09,24,05,45,11.90
2015,09,24,05,46,11.90
2015,09,24,05,47,11.90
2015,09,24,05,48,11.90
2015,09,24,05,49,11.90
2015,09,24,05,50,11.90
2015,09,24,05,51,11.90
2015,09,24,05,52,11.90
2015,09,24,05,53,11.90
2015,09,24,05,54,11.90
2015,09,24,05,55,11.80
2015,09,24,05,56,11.80
2015,09,24,05,57,11.80
2015,09,24,05,58,11.80
2015,09,24,05,59,11.80
2015,09,24,06,00,11.80
2015,09,24,06,01,11.80
2015,09,24,06,02,11.80
2015,09,24,06,03,11.80
2015,09,24,06,04,11.80
2015,09,24,06,05,11.80
2015,09,24,06,06,11.80
2015,09,24,06,07,11.80
2015,09,24,06,08,11.80
2015,09,24,06,09,11.80
2015,09,24,06,10,11.80
2015,09,24,06,11,11.80
2015,09,24,06,12,11.80
2015,09,24,06,13,11.80
2015,09,24,06,14,11.80
2015,09,24,06,15,11.80
2015,09,24,06,16,11.80
2015,09,24,06,17,11.80
2015,09,24,06,18,11.80
2015,09,24,06,19,11.80
2015,09,24,06,20,11.80
2015,09,24,06,21,11.80
2015,09,24,06,22,11.80
2015,09,24,06,23,11.80
2015,09,24,06,24,11.80
2015,09,24,06,25,11.80
2015,09,24,06,26,11.80
2015,09,24,06,27,11.80
2015,09,24,06,28,11.80
2015,09,24,06,29,11.80
2015,09,24,06,30,11.80
2015,09,24,06,31,11.80
2015,09,24,06,32,11.90
2015,09,24,06,33,11.90
2015,09,24,06,34,11.90
2015,09,24,06,35,11.90
2015,09,24,06,36,11.90
2015,09,24,06,37,11.90
2015,09,24,06,38,11.90
2015,09,24,06,39,11.90
2015,09,24,06,40,11.90
2015,09,24,06,41,11.90
2015,09,24,06,42,11.90
2015,09,24,06,43,12.00
2015,09,24,06,44,12.00
2015,09,24,06,45,12.00
2015,09,24,06,46,12.00
2015,09,24,06,47,12.00
2015,09,24,06,48,12.00
2015,09,24,06,49,12.00
2015,09,24,06,50,12.00
2015,09,24,06,51,12.00
2015,09,24,06,52,12.00
2015,09,24,06,53,12.00
2015,09,24,06,54,12.00
2015,09,24,06,55,12.00
2015,09,24,06,56,12.00
2015,09,24,06,57,12.00
2015,09,24,06,58,12.00
2015,09,24,06,59,12.00
2015,09,24,07,00,12.00
2015,09,24,07,01,12.00
2015,09,24,07,02,12.00
2015,09,24,07,03,12.00
2015,09,24,07,04,12.00
2015,09,24,07,05,12.00
2015,09,24,07,06,12.00
2015,09,24,07,07,12.00
2015,09,24,07,08,12.00
2015,09,24,07,09,12.00
2015,09,24,07,10,12.00
2015,09,24,07,11,12.00
2015,09,24,07,12,12.00
2015,09,24,07,13,12.00
2015,09,24,07,14,12.00
2015,09,24,07,15,12.00
2015,09,24,07,16,12.00
2015,09,24,07,17,12.10
2015,09,24,07,18,12.10
2015,09,24,07,19,12.10
2015,09,24,07,20,12.10
2015,09,24,07,21,12.10
2015,09,24,07,22,12.10
2015,09,24,07,23,12.10
2015,09,24,07,24,12.10
2015,09,24,07,25,12.10
2015,09,24,07,26,12.10
2015,09,24,07,27,12.10
2015,09,24,07,28,12.10
2015,09,24,07,29,12.10
2015,09,24,07,30,12.10
2015,09,24,07,31,12.10
2015,09,24,07,32,12.10
2015,09,24,07,33,12.10
2015,09,24,07,34,12.10
2015,09,24,07,35,12.10
2015,09,24,07,36,12.10
2015,09,24,07,37,12.20
2015,09,24,07,38,12.20
2015,09,24,07,39,12.20
2015,09,24,07,40,12.20
2015,09,24,07,41,12.20
2015,09,24,07,42,12.20
2015,09,24,07,43,12.20
2015,09,24,07,44,12.20
2015,09,24,07,45,12.20
2015,09,24,07,46,12.30
2015,09,24,07,47,12.30
2015,09,24,07,48,12.30
2015,09,24,07,49,12.30
2015,09,24,07,50,12.30
2015,09,24,07,51,12.30
2015,09,24,07,52,12.30
2015,09,24,07,53,12.30
2015,09,24,07,54,12.30
2015,09,24,07,55,12.30
2015,09,24,07,56,12.30
2015,09,24,07,57,12.30
2015,09,24,07,58,12.30
2015,09,24,07,59,12.30
2015,09,24,08,00,12.30
2015,09,24,08,01,12.30
2015,09,24,08,02,12.30
2015,09,24,08,03,12.30
2015,09,24,08,04,12.30
2015,09,24,08,05,12.30
2015,09,24,08,06,12.30
2015,09,24,08,07,12.30
2015,09,24,08,08,12.30
2015,09,24,08,09,12.30
2015,09,24,08,10,12.30
2015,09,24,08,11,12.30
2015,09,24,08,12,12.30
2015,09,24,08,13,12.30
2015,09,24,08,14,12.30
2015,09,24,08,15,12.30
2015,09,24,08,16,12.30
2015,09,24,08,17,12.30
2015,09,24,08,18,12.30
2015,09,24,08,19,12.30
2015,09,24,08,20,12.30
2015,09,24,08,21,12.30
2015,09,24,08,22,12.40
2015,09,24,08,23,12.40
2015,09,24,08,24,12.40
2015,09,24,08,25,12.40
2015,09,24,08,26,12.40
2015,09,24,08,27,12.40
2015,09,24,08,28,12.40
2015,09,24,08,29,12.40
2015,09,24,08,30,12.40
2015,09,24,08,31,12.40
2015,09,24,08,32,12.40
2015,09,24,08,33,12.40
2015,09,24,08,34,12.40
2015,09,24,08,35,12.40
2015,09,24,08,36,12.40
2015,09,24,08,37,12.40
2015,09,24,08,38,12.40
2015,09,24,08,39,12.40
2015,09,24,08,40,12.40
2015,09,24,08,41,12.40
2015,09,24,08,42,12.40
2015,09,24,08,43,12.40
2015,09,24,08,44,12.50
2015,09,24,08,45,12.50
2015,09,24,08,46,12.50
2015,09,24,08,47,12.50
2015,09,24,08,48,12.60
2015,09,24,08,49,12.60
2015,09,24,08,50,12.60
2015,09,24,08,51,12.60
2015,09,24,08,52,12.60
2015,09,24,08,53,12.60
2015,09,24,08,54,12.60
2015,09,24,08,55,12.70
2015,09,24,08,56,12.70
2015,09,24,08,57,12.70
2015,09,24,08,58,12.70
2015,09,24,08,59,12.70
2015,09,24,09,00,12.70
2015,09,24,09,01,12.70
2015,09,24,09,02,12.70
2015,09,24,09,03,12.70
2015,09,24,09,04,12.70
2015,09,24,09,05,12.70
2015,09,24,09,06,12.80
2015,09,24,09,07,12.80
2015,09,24,09,08,12.80
2015,09,24,09,09,12.80
2015,09,24,09,10,12.80
2015,09,24,09,11,12.80
2015,09,24,09,12,12.80
2015,09,24,09,13,12.80
2015,09,24,09,14,12.80
2015,09,24,09,15,12.80
2015,09,24,09,16,12.80
2015,09,24,09,17,12.80
2015,09,24,09,18,12.80
2015,09,24,09,19,12.80
2015,09,24,09,20,12.80
2015,09,24,09,21,12.80
2015,09,24,09,22,12.90
2015,09,24,09,23,12.90
2015,09,24,09,24,12.90
2015,09,24,09,25,12.90
2015,09,24,09,26,13.00
2015,09,24,09,27,13.00
2015,09,24,09,28,13.00
2015,09,24,09,29,13.10
2015,09,24,09,30,13.10
2015,09,24,09,31,13.10
2015,09,24,09,32,13.10
2015,09,24,09,33,13.10
2015,09,24,09,34,13.20
2015,09,24,09,35,13.20
2015,09,24,09,36,13.20
2015,09,24,09,37,13.20
2015,09,24,09,38,13.20
2015,09,24,09,39,13.20
2015,09,24,09,40,13.20
2015,09,24,09,41,13.20
2015,09,24,09,42,13.20
2015,09,24,09,43,13.20
2015,09,24,09,44,13.20
2015,09,24,09,45,13.20
2015,09,24,09,46,13.20
2015,09,24,09,47,13.20
2015,09,24,09,48,13.20
2015,09,24,09,49,13.20
2015,09,24,09,50,13.20
2015,09,24,09,51,13.20
2015,09,24,09,52,13.20
2015,09,24,09,53,13.20
2015,09,24,09,54,13.20
2015,09,24,09,55,13.20
2015,09,24,09,56,13.30
2015,09,24,09,57,13.30
2015,09,24,09,58,13.30
2015,09,24,09,59,13.30
2015,09,24,10,00,13.30
2015,09,24,10,01,13.30
2015,09,24,10,02,13.30
2015,09,24,10,03,13.30
2015,09,24,10,04,13.30
2015,09,24,10,05,13.30
2015,09,24,10,06,13.30
2015,09,24,10,07,13.30
2015,09,24,10,08,13.30
2015,09,24,10,09,13.30
2015,09,24,10,10,13.30
2015,09,24,10,11,13.30
2015,09,24,10,12,13.40
2015,09,24,10,13,13.40
2015,09,24,10,14,13.40
2015,09,24,10,15,13.30
2015,09,24,10,16,13.40
2015,09,24,10,17,13.30
2015,09,24,10,18,13.30
2015,09,24,10,19,13.40
2015,09,24,10,20,13.40
2015,09,24,10,21,13.40
2015,09,24,10,22,13.40
2015,09,24,10,23,13.40
2015,09,24,10,24,13.40
2015,09,24,10,25,13.40
2015,09,24,10,26,13.40
2015,09,24,10,27,13.50
2015,09,24,10,28,13.50
2015,09,24,10,29,13.50
2015,09,24,10,30,13.50
2015,09,24,10,31,13.60
2015,09,24,10,32,13.60
2015,09,24,10,33,13.60
2015,09,24,10,34,13.60
2015,09,24,10,35,13.60
2015,09,24,10,36,13.70
2015,09,24,10,37,13.70
2015,09,24,10,38,13.70
2015,09,24,10,39,13.70
2015,09,24,10,40,13.70
2015,09,24,10,41,13.80
2015,09,24,10,42,13.80
2015,09,24,10,43,13.80
2015,09,24,10,44,13.80
2015,09,24,10,45,13.80
2015,09,24,10,46,13.90
2015,09,24,10,47,13.90
2015,09,24,10,48,13.90
2015,09,24,10,49,13.90
2015,09,24,10,50,13.90
2015,09,24,10,51,13.90
2015,09,24,10,52,13.90
2015,09,24,10,53,13.90
2015,09,24,10,54,13.90
2015,09,24,10,55,13.90
2015,09,24,10,56,13.90
2015,09,24,10,57,13.90
2015,09,24,10,58,13.90
2015,09,24,10,59,13.90
2015,09,24,11,00,13.90
2015,09,24,11,01,13.90
2015,09,24,11,02,13.90
2015,09,24,11,03,13.90
2015,09,24,11,04,13.90
2015,09,24,11,05,13.90
2015,09,24,11,06,13.90
2015,09,24,11,07,13.90
2015,09,24,11,08,13.90
2015,09,24,11,09,13.90
2015,09,24,11,10,13.80
2015,09,24,11,11,13.80
2015,09,24,11,12,13.80
2015,09,24,11,13,13.80
2015,09,24,11,14,13.80
2015,09,24,11,15,13.80
2015,09,24,11,16,13.80
2015,09,24,11,17,13.80
2015,09,24,11,18,13.70
2015,09,24,11,19,13.70
2015,09,24,11,20,13.70
2015,09,24,11,21,13.70
2015,09,24,11,22,13.70
2015,09,24,11,23,13.70
2015,09,24,11,24,13.70
2015,09,24,11,25,13.70
2015,09,24,11,26,13.60
2015,09,24,11,27,13.60
2015,09,24,11,28,13.60
2015,09,24,11,29,13.60
2015,09,24,11,30,13.60
2015,09,24,11,31,13.60
2015,09,24,11,32,13.60
2015,09,24,11,33,13.60
2015,09,24,11,34,13.50
2015,09,24,11,35,13.50
2015,09,24,11,36,13.50
2015,09,24,11,37,13.50
2015,09,24,11,38,13.50
2015,09,24,11,39,13.40
2015,09,24,11,40,13.40
2015,09,24,11,41,13.40
2015,09,24,11,42,13.40
2015,09,24,11,43,13.40
2015,09,24,11,44,13.40
2015,09,24,11,45,13.40
2015,09,24,11,46,13.40
2015,09,24,11,47,13.40
2015,09,24,11,48,13.40
2015,09,24,11,49,13.40
2015,09,24,11,50,13.40
2015,09,24,11,51,13.40
2015,09,24,11,52,13.30
2015,09,24,11,53,13.30
2015,09,24,11,54,13.30
2015,09,24,11,55,13.30
2015,09,24,11,56,13.30
2015,09,24,11,57,13.30
2015,09,24,11,58,13.30
2015,09,24,11,59,13.30
2015,09,24,12,00,13.30
2015,09,24,12,01,13.30
2015,09,24,12,02,13.30
2015,09,24,12,03,13.30
2015,09,24,12,04,13.30
2015,09,24,12,05,13.30
2015,09,24,12,06,13.20
2015,09,24,12,07,13.20
2015,09,24,12,08,13.20
2015,09,24,12,09,13.20
2015,09,24,12,10,13.20
2015,09,24,12,11,13.20
2015,09,24,12,12,13.20
2015,09,24,12,13,13.20
2015,09,24,12,14,13.20
2015,09,24,12,15,13.20
2015,09,24,12,16,13.10
2015,09,24,12,17,13.10
2015,09,24,12,18,13.10
2015,09,24,12,19,13.10
2015,09,24,12,20,13.10
2015,09,24,12,21,13.10
2015,09,24,12,22,13.00
2015,09,24,12,23,13.00
2015,09,24,12,24,12.90
2015,09,24,12,25,12.90
2015,09,24,12,26,12.90
2015,09,24,12,27,12.90
2015,09,24,12,28,12.90
2015,09,24,12,29,12.90
2015,09,24,12,30,12.90
2015,09,24,12,31,12.90
2015,09,24,12,32,12.90
2015,09,24,12,33,12.90
2015,09,24,12,34,12.90
2015,09,24,12,35,13.00
2015,09,24,12,36,12.90
2015,09,24,12,37,13.00
2015,09,24,12,38,13.00
2015,09,24,12,39,13.00
2015,09,24,12,40,13.00
2015,09,24,12,41,13.00
2015,09,24,12,42,13.00
2015,09,24,12,43,13.00
2015,09,24,12,44,13.00
2015,09,24,12,45,13.00
2015,09,24,12,46,13.00
2015,09,24,12,47,13.00
2015,09,24,12,48,13.00
2015,09,24,12,49,13.00
2015,09,24,12,50,13.00
2015,09,24,12,51,13.00
2015,09,24,12,52,13.00
2015,09,24,12,53,13.00
2015,09,24,12,54,13.00
2015,09,24,12,55,13.00
2015,09,24,12,56,13.00
2015,09,24,12,57,13.00
2015,09,24,12,58,13.00
2015,09,24,12,59,13.00
2015,09,24,13,00,13.00
2015,09,24,13,01,13.00
2015,09,24,13,02,13.00
2015,09,24,13,03,13.00
2015,09,24,13,04,13.00
2015,09,24,13,05,13.00
2015,09,24,13,06,13.00
2015,09,24,13,07,13.00
2015,09,24,13,08,12.90
2015,09,24,13,09,12.90
2015,09,24,13,10,12.90
2015,09,24,13,11,12.90
2015,09,24,13,12,12.90
2015,09,24,13,13,12.90
2015,09,24,13,14,13.00
2015,09,24,13,15,13.00
2015,09,24,13,16,13.00
2015,09,24,13,17,13.00
2015,09,24,13,18,13.00
2015,09,24,13,19,13.00
2015,09,24,13,20,13.00
2015,09,24,13,21,13.00
2015,09,24,13,22,13.00
2015,09,24,13,23,13.00
2015,09,24,13,24,13.00
2015,09,24,13,25,13.00
2015,09,24,13,26,13.00
2015,09,24,13,27,13.00
2015,09,24,13,28,13.00
2015,09,24,13,29,13.00
2015,09,24,13,30,13.00
2015,09,24,13,31,13.00
2015,09,24,13,32,13.00
2015,09,24,13,33,13.00
2015,09,24,13,34,13.00
2015,09,24,13,35,13.00
2015,09,24,13,36,13.00
2015,09,24,13,37,13.00
2015,09,24,13,38,13.00
2015,09,24,13,39,13.00
2015,09,24,13,40,13.00
2015,09,24,13,41,13.00
2015,09,24,13,42,13.00
2015,09,24,13,43,13.00
2015,09,24,13,44,13.00
2015,09,24,13,45,13.10
2015,09,24,13,46,13.10
2015,09,24,13,47,13.10
2015,09,24,13,48,13.10
2015,09,24,13,49,13.10
2015,09,24,13,50,13.10
2015,09,24,13,51,13.10
2015,09,24,13,52,13.10
2015,09,24,13,53,13.10
2015,09,24,13,54,13.10
2015,09,24,13,55,13.10
2015,09,24,13,56,13.10
2015,09,24,13,57,13.10
2015,09,24,13,58,13.20
2015,09,24,13,59,13.20
2015,09,24,14,00,13.20
2015,09,24,14,01,13.20
2015,09,24,14,02,13.20
2015,09,24,14,03,13.20
2015,09,24,14,04,13.20
2015,09,24,14,05,13.20
2015,09,24,14,06,13.30
2015,09,24,14,07,13.30
2015,09,24,14,08,13.30
2015,09,24,14,09,13.30
2015,09,24,14,10,13.30
2015,09,24,14,11,13.30
2015,09,24,14,12,13.30
2015,09,24,14,13,13.30
2015,09,24,14,14,13.30
2015,09,24,14,15,13.40
2015,09,24,14,16,13.40
2015,09,24,14,17,13.40
2015,09,24,14,18,13.40
2015,09,24,14,19,13.40
2015,09,24,14,20,13.40
2015,09,24,14,21,13.40
2015,09,24,14,22,13.40
2015,09,24,14,23,13.40
2015,09,24,14,24,13.40
2015,09,24,14,25,13.40
2015,09,24,14,26,13.40
2015,09,24,14,27,13.40
2015,09,24,14,28,13.40
2015,09,24,14,29,13.40
2015,09,24,14,30,13.40
2015,09,24,14,31,13.30
2015,09,24,14,32,13.30
2015,09,24,14,33,13.30
2015,09,24,14,34,13.30
2015,09,24,14,35,13.30
2015,09,24,14,36,13.30
2015,09,24,14,37,13.30
2015,09,24,14,38,13.20
2015,09,24,14,39,13.20
2015,09,24,14,40,13.20
2015,09,24,14,41,13.20
2015,09,24,14,42,13.20
2015,09,24,14,43,13.30
2015,09,24,14,44,13.30
2015,09,24,14,45,13.30
2015,09,24,14,46,13.30
2015,09,24,14,47,13.30
2015,09,24,14,48,13.30
2015,09,24,14,49,13.40
2015,09,24,14,50,13.40
2015,09,24,14,51,13.40
2015,09,24,14,52,13.40
2015,09,24,14,53,13.40
2015,09,24,14,54,13.40
2015,09,24,14,55,13.40
2015,09,24,14,56,13.40
2015,09,24,14,57,13.40
2015,09,24,14,58,13.40
2015,09,24,14,59,13.40
2015,09,24,15,00,13.50
2015,09,24,15,01,13.50
2015,09,24,15,02,13.50
2015,09,24,15,03,13.50
2015,09,24,15,04,13.60
2015,09,24,15,05,13.60
2015,09,24,15,06,13.60
2015,09,24,15,07,13.60
2015,09,24,15,08,13.60
2015,09,24,15,09,13.70
2015,09,24,15,10,13.70
2015,09,24,15,11,13.70
2015,09,24,15,12,13.70
2015,09,24,15,13,13.70
2015,09,24,15,14,13.70
2015,09,24,15,15,13.70
2015,09,24,15,16,13.70
2015,09,24,15,17,13.80
2015,09,24,15,18,13.80
2015,09,24,15,19,13.80
2015,09,24,15,20,13.80
2015,09,24,15,21,13.80
2015,09,24,15,22,13.80
2015,09,24,15,23,13.80
2015,09,24,15,24,13.80
2015,09,24,15,25,13.80
2015,09,24,15,26,13.80
2015,09,24,15,27,13.80
2015,09,24,15,28,13.80
2015,09,24,15,29,13.80
2015,09,24,15,30,13.80
2015,09,24,15,31,13.80
2015,09,24,15,32,13.80
2015,09,24,15,33,13.80
2015,09,24,15,34,13.80
2015,09,24,15,35,13.80
2015,09,24,15,36,13.80
2015,09,24,15,37,13.80
2015,09,24,15,38,13.80
2015,09,24,15,39,13.80
2015,09,24,15,40,13.80
2015,09,24,15,41,13.80
2015,09,24,15,42,13.80
2015,09,24,15,43,13.80
2015,09,24,15,44,13.80
2015,09,24,15,45,13.80
2015,09,24,15,46,13.80
2015,09,24,15,47,13.80
2015,09,24,15,48,13.80
2015,09,24,15,49,13.80
2015,09,24,15,50,13.80
2015,09,24,15,51,13.80
2015,09,24,15,52,13.90
2015,09,24,15,53,13.90
2015,09,24,15,54,13.90
2015,09,24,15,55,13.90
2015,09,24,15,56,13.90
2015,09,24,15,57,13.90
2015,09,24,15,58,13.90
2015,09,24,15,59,13.90
2015,09,24,16,00,13.90
2015,09,24,16,01,13.90
2015,09,24,16,02,13.90
2015,09,24,16,03,13.90
2015,09,24,16,04,14.00
2015,09,24,16,05,14.00
2015,09,24,16,06,14.00
2015,09,24,16,07,14.00
2015,09,24,16,08,14.00
2015,09,24,16,09,14.10
2015,09,24,16,10,14.10
2015,09,24,16,11,14.10
2015,09,24,16,12,14.10
2015,09,24,16,13,14.10
2015,09,24,16,14,14.10
2015,09,24,16,15,14.10
2015,09,24,16,16,14.10
2015,09,24,16,17,14.10
2015,09,24,16,18,14.10
2015,09,24,16,19,14.10
2015,09,24,16,20,14.10
2015,09,24,16,21,14.10
2015,09,24,16,22,14.10
2015,09,24,16,23,14.10
2015,09,24,16,24,14.10
2015,09,24,16,25,14.10
2015,09,24,16,26,14.10
2015,09,24,16,27,14.10
2015,09,24,16,28,14.10
2015,09,24,16,29,14.10
2015,09,24,16,30,14.10
2015,09,24,16,31,14.10
2015,09,24,16,32,14.10
2015,09,24,16,33,14.10
2015,09,24,16,34,14.10
2015,09,24,16,35,14.20
2015,09,24,16,36,14.20
2015,09,24,16,37,14.20
2015,09,24,16,38,14.20
2015,09,24,16,39,14.20
2015,09,24,16,40,14.20
2015,09,24,16,41,14.20
2015,09,24,16,42,14.20
2015,09,24,16,43,14.20
2015,09,24,16,44,14.20
2015,09,24,16,45,14.20
2015,09,24,16,46,14.20
2015,09,24,16,47,14.20
2015,09,24,16,48,14.20
2015,09,24,16,49,14.20
2015,09,24,16,50,14.20
2015,09,24,16,51,14.20
2015,09,24,16,52,14.20
2015,09,24,16,53,14.20
2015,09,24,16,54,14.20
2015,09,24,16,55,14.20
2015,09,24,16,56,14.20
2015,09,24,16,57,14.20
2015,09,24,16,58,14.20
2015,09,24,16,59,14.20
2015,09,24,17,00,14.20
2015,09,24,17,01,14.20
2015,09,24,17,02,14.20
2015,09,24,17,03,14.20
2015,09,24,17,04,14.20
2015,09,24,17,05,14.20
2015,09,24,17,06,14.20
2015,09,24,17,07,14.20
2015,09,24,17,08,14.20
2015,09,24,17,09,14.20
2015,09,24,17,10,14.20
2015,09,24,17,11,14.20
2015,09,24,17,12,14.10
2015,09,24,17,13,14.10
2015,09,24,17,14,14.10
2015,09,24,17,15,14.10
2015,09,24,17,16,14.10
2015,09,24,17,17,14.10
2015,09,24,17,18,14.00
2015,09,24,17,19,14.00
2015,09,24,17,20,14.00
2015,09,24,17,21,13.90
2015,09,24,17,22,13.90
2015,09,24,17,23,13.90
2015,09,24,17,24,13.90
2015,09,24,17,25,13.80
2015,09,24,17,26,13.80
2015,09,24,17,27,13.80
2015,09,24,17,28,13.80
2015,09,24,17,29,13.80
2015,09,24,17,30,13.70
2015,09,24,17,31,13.70
2015,09,24,17,32,13.70
2015,09,24,17,33,13.70
2015,09,24,17,34,13.70
2015,09,24,17,35,13.70
2015,09,24,17,36,13.70
2015,09,24,17,37,13.70
2015,09,24,17,38,13.70
2015,09,24,17,39,13.70
2015,09,24,17,40,13.80
2015,09,24,17,41,13.80
2015,09,24,17,42,13.80
2015,09,24,17,43,13.80
2015,09,24,17,44,13.80
2015,09,24,17,45,13.80
2015,09,24,17,46,13.80
2015,09,24,17,47,13.80
2015,09,24,17,48,13.80
2015,09,24,17,49,13.80
2015,09,24,17,50,13.80
2015,09,24,17,51,13.80
2015,09,24,17,52,13.80
2015,09,24,17,53,13.80
2015,09,24,17,54,13.90
2015,09,24,17,55,13.80
2015,09,24,17,56,13.90
2015,09,24,17,57,13.90
2015,09,24,17,58,13.90
2015,09,24,17,59,13.90
2015,09,24,18,00,13.90
2015,09,24,18,01,13.90
2015,09,24,18,02,13.90
2015,09,24,18,03,13.90
2015,09,24,18,04,13.90
2015,09,24,18,05,13.90
2015,09,24,18,06,13.90
2015,09,24,18,07,13.90
2015,09,24,18,08,13.90
2015,09,24,18,09,13.90
2015,09,24,18,10,13.90
2015,09,24,18,11,13.90
2015,09,24,18,12,13.90
2015,09,24,18,13,13.90
2015,09,24,18,14,13.80
2015,09,24,18,15,13.80
2015,09,24,18,16,13.80
2015,09,24,18,17,13.80